TimeMST,TemperatureF,Dew PointF,Humidity,Sea Level PressureIn,VisibilityMPH,Wind Direction,Wind SpeedMPH,Gust SpeedMPH,PrecipitationIn,Events,Conditions,WindDirDegrees,DateUTC
12:53 AM,28.0,24.1,85,30.33,10.0,NNW,3.5,-,N/A,,Clear,330,2012-12-04 07:53:00
1:53 AM,28.0,24.1,85,30.32,10.0,Calm,Calm,-,N/A,,Partly Cloudy,0,2012-12-04 08:53:00
2:53 AM,28.9,25.0,85,30.31,10.0,Calm,Calm,-,N/A,,Clear,0,2012-12-04 09:53:00
3:53 AM,30.0,25.0,82,30.30,10.0,NNW,3.5,-,N/A,,Overcast,340,2012-12-04 10:53:00
4:53 AM,30.9,26.1,82,30.30,10.0,Calm,Calm,-,N/A,,Overcast,0,2012-12-04 11:53:00
5:53 AM,30.9,26.1,82,30.28,10.0,NNW,3.5,-,N/A,,Overcast,330,2012-12-04 12:53:00
6:53 AM,35.1,23.0,61,30.30,10.0,SSW,6.9,-,N/A,,Overcast,200,2012-12-04 13:53:00
7:53 AM,35.1,24.1,64,30.30,10.0,South,8.1,-,N/A,,Overcast,190,2012-12-04 14:53:00
8:53 AM,37.0,26.1,65,30.30,10.0,South,15.0,19.6,N/A,,Overcast,180,2012-12-04 15:53:00
9:21 AM,33.8,30.2,87,30.26,3.0,South,15.0,26.5,0.00,Snow,Light Snow,180,2012-12-04 16:21:00
9:53 AM,34.0,32.0,92,30.34,10.0,South,13.8,20.7,0.00,,Overcast,190,2012-12-04 16:53:00
10:53 AM,35.1,30.0,82,30.32,10.0,South,8.1,-,N/A,,Overcast,190,2012-12-04 17:53:00
11:53 AM,36.0,30.0,79,30.29,10.0,South,11.5,-,N/A,,Overcast,190,2012-12-04 18:53:00
12:53 PM,37.9,30.9,76,30.30,10.0,SSW,8.1,-,N/A,,Overcast,200,2012-12-04 19:53:00
1:51 PM,37.4,33.8,87,30.22,10.0,Calm,Calm,-,N/A,,Overcast,0,2012-12-04 20:51:00
1:53 PM,37.9,33.1,83,30.29,10.0,Calm,Calm,-,N/A,,Overcast,0,2012-12-04 20:53:00
2:53 PM,37.9,33.1,83,30.27,10.0,SW,5.8,-,0.00,,Overcast,230,2012-12-04 21:53:00
3:16 PM,39.2,33.8,81,30.20,10.0,SSW,5.8,-,N/A,,Overcast,210,2012-12-04 22:16:00
3:39 PM,39.2,33.8,81,30.21,10.0,WSW,5.8,-,N/A,,Overcast,250,2012-12-04 22:39:00
3:53 PM,39.9,34.0,79,30.26,10.0,SSW,5.8,-,0.00,Rain,Light Rain,200,2012-12-04 22:53:00
4:32 PM,39.2,33.8,81,30.19,10.0,South,5.8,-,0.00,,Overcast,190,2012-12-04 23:32:00
4:53 PM,39.9,34.0,79,30.23,10.0,South,8.1,-,0.00,,Overcast,180,2012-12-04 23:53:00
5:53 PM,41.0,35.1,79,30.22,10.0,SSW,9.2,-,N/A,,Overcast,200,2012-12-05 00:53:00
6:53 PM,41.0,35.1,79,30.22,10.0,SW,4.6,-,N/A,,Overcast,220,2012-12-05 01:53:00
7:53 PM,39.9,37.0,89,30.22,8.0,SSW,8.1,-,0.02,Rain,Light Rain,210,2012-12-05 02:53:00
8:53 PM,39.9,37.0,89,30.19,9.0,South,9.2,-,0.05,Rain,Light Rain,190,2012-12-05 03:53:00
9:53 PM,39.9,37.0,89,30.18,10.0,South,13.8,20.7,0.03,Rain,Light Rain,180,2012-12-05 04:53:00
10:53 PM,39.9,37.0,89,30.16,10.0,South,13.8,21.9,0.00,,Overcast,180,2012-12-05 05:53:00
11:36 PM,39.2,37.4,93,30.11,10.0,South,13.8,20.7,N/A,,Overcast,180,2012-12-05 06:36:00
11:53 PM,41.0,36.0,82,30.14,10.0,South,16.1,-,N/A,,Overcast,180,2012-12-05 06:53:00